www.pogodaiklimat.ru
ПОГОДА в Олимпии
Время
и дата
00:54 21.06
01:54 21.06
02:54 21.06
03:54 21.06
04:54 21.06
05:54 21.06
06:54 21.06
07:54 21.06
08:54 21.06
09:54 21.06
10:54 21.06
11:54 21.06
12:54 21.06
13:54 21.06
14:54 21.06
15:54 21.06
16:54 21.06
17:54 21.06
18:54 21.06
19:54 21.06
20:54 21.06
21:54 21.06
22:54 21.06
23:54 21.06
00:54 22.06
01:54 22.06
02:54 22.06
03:54 22.06
04:54 22.06
05:54 22.06
06:54 22.06
07:54 22.06
08:54 22.06
09:54 22.06
10:54 22.06
11:54 22.06
12:54 22.06
13:54 22.06
14:54 22.06
15:54 22.06
16:54 22.06
17:54 22.06
18:54 22.06
19:54 22.06
20:38 22.06
20:54 22.06
21:10 22.06
21:54 22.06
Ветер
(напр.,м/с)
Видим. Явления Облачность Т
(С)
Тd
(С)
f
(%)
Тe
(С)
Тes
(С)
Комфортность P
(гПа)
Po
(гПа)
Тmin
(С)
Tmax
(С)
R
(мм)
R24
(мм)
S
(см)
штиль 0 16 км ясно +12.8 +9.4 80 +12 +12 1014.6 1007.0
штиль 0 16 км ясно +11.1 +9.4 89 +10 +10 1014.5 1007.0
штиль 0 16 км ясно +11.1 +8.9 86 +10 +10 1014.4 1007.0
Ю 2 16 км ясно +10.0 +8.9 93 +8 +8 1014.5 1007.0 +10.0 +17.2
штиль 0 16 км ясно +10.0 +8.3 89 +9 +9 1014.6 1007.3
штиль 0 16 км ясно +12.2 +10.6 90 +12 +12 1014.9 1007.7
штиль 0 16 км ясно +16.1 +11.7 75 +16 +18 1014.9 1007.3
штиль 0 16 км ясно +20.0 +11.7 59 +21 +27 комфорт 1014.7 1007.3
С 2 16 км ясно +22.8 +11.1 48 +25 +32 комфорт 1014.7 1007.3
СВ 2 16 км ясно +24.4 +10.6 42 +26 +37 жарко 1014.4 1007.0 +9.4 +24.4
штиль 0 16 км ясно +25.6 +10.0 37 +26 +46 жарко 1014.3 1007.0
16 км ясно +26.7 +9.4 34 +27 +51 опасность
солнечного
удара
1014.0 1006.7
нст 2 16 км ясно +28.9 +6.1 24 +28 +46 жарко 1013.5 1006.0
СВ 3 16 км ясно +30.0 +8.3 26 +29 +44 жарко 1012.9 1005.7
штиль 0 16 км ясно +30.6 +8.9 26 +30 +52 опасность
солнечного
удара
1012.4 1005.0
СЗ 5 16 км ясно +30.6 +11.1 30 +31 +37 жарко 1012.1 1004.7 +24.4 +31.1
штиль 0 16 км ясно +30.0 +10.0 29 +30 +42 жарко 1011.6 1004.3
З 5 16 км ясно +27.8 +6.1 25 +27 +30 жарко 1011.6 1004.3
З 4 16 км ясно +25.6 +5.0 27 +25 +27 комфорт 1012.0 1004.7
Ю 3 16 км ясно +21.1 +7.8 42 +22 +23 комфорт 1012.3 1005.0
нст 2 16 км ясно +18.9 +8.3 50 +20 +20 1012.8 1005.3
ЮВ 3 16 км ясно +16.7 +9.4 62 +17 +17 1013.1 1005.7 +16.7 +30.6
Ю 2 16 км ясно +15.0 +7.2 60 +15 +15 1013.2 1005.7
Ю 2 16 км ясно +13.9 +6.1 59 +14 +14 1013.4 1006.0
Ю 2 16 км ясно +13.9 +6.7 62 +14 +14 1013.5 1006.0
Ю 2 16 км ясно +13.3 +7.2 67 +13 +13 1013.5 1006.0
Ю 2 16 км ясно +11.7 +7.2 74 +11 +11 1013.6 1006.3
штиль 0 16 км ясно +11.7 +7.8 77 +11 +11 1013.9 1006.3 +11.7 +16.7
Ю 3 16 км ясно +11.7 +8.3 80 +10 +10 1013.9 1006.3
Ю 2 16 км ясно +12.2 +8.9 80 +11 +11 1013.9 1006.7
Ю 2 16 км ясно +12.8 +8.9 77 +12 +14 1014.0 1006.7
ЮЗ 2 16 км ясно +13.9 +8.9 72 +13 +17 1014.0 1006.7
Ю 2 16 км ясно +15.6 +9.4 67 +16 +23 1013.9 1006.3
Ю 3 16 км 2/0 3300 m
[Ac]
+16.7 +9.4 62 +17 +25 1013.7 1006.3 +11.7 +16.7
нст 2 16 км 5/0 3300 m
[Ac]
+20.0 +8.3 47 +22 +31 комфорт 1013.4 1006.0
ЮЗ 4 16 км ясно +22.2 +8.3 41 +23 +35 комфорт 1013.1 1005.7
Ю 3 16 км ясно +23.3 +11.1 46 +26 +41 жарко 1012.8 1005.3
16 км 5/0 2700 m
[Ac]
+25.6 +12.2 43 +27 +43 жарко 1012.5 1005.0
ЮЗ 5 16 км 10/8 1410 m
[Ac]
+23.3 +12.8 52 +26 +27 жарко 1012.8 1005.3
З 4 16 км 2/0 3000 m
[Ac]
+23.9 +13.3 51 +26 +33 жарко 1012.4 1005.0 +16.7 +26.1
З 6 16 км 10/10 1800 м +22.8 +13.9 57 +26 +26 жарко 1012.6 1005.0
ЮЗ 5 16 км 8/8 1650 м +20.6 +13.3 63 +23 +23 комфорт 1012.7 1005.3
ЮЗ 5 16 км 8/0 2400 m
[Ac]
+20.0 +13.3 65 +22 +22 комфорт 1013.2 1005.7
ЮЗ 4
{8}
16 км ясно +17.2 +12.8 75 +17 +17 1013.5 1006.0
ЮЗ 3 16 км 8/8 630 м +16.7 +12.8 78 +16 +16 1006.3
Ю 3 16 км 8/8 660 м +16.1 +12.8 81 +16 +16 1013.9 1006.3
ЮЗ 5 16 км 5/5 660 м +15.6 +12.8 83 +14 +14 1006.3
Ю 5 16 км 2/2 900 м +15.6 +12.8 83 +14 +14 1014.2 1006.7 +15.6 +25.0
Местоположение метеостанции Olympia Airport: широта 46.9733 долгота -122.9033 высота над уровнем моря 62 м.
В архиве по умолчанию представлена погода в Олимпии за последние 1-2 суток. Обновление информации о фактической погоде в базе происходит ежечасно! Архивные данные за месяц целиком и за предыдущие месяцы Вы можете получить, выбрав интересующий диапазон дат из раскрывающегося списка и нажав кнопку "Ввод!".
Внимание! Архив погоды МЕТАР в базе сайта по станциям, не включенным в климатический монитор, хранится не более 60 дней. Нет смысла пытаться выбрать более раннюю дату.
*Определитесь, кто Вы:
Внимание! Время в таблицах - местное (без учета летнего времени). Для получения всемирного времени необходимо вычесть поправку, которая равна -8 ч.
Смотрите также архив погоды в соседних городах и на ближайших метеорологических станциях:
Партнеры нашего сайта:      
Пояснения к столбцам:
  • Ветер - указаны скорость ветра в м/с - средняя за 10 мин, порывы в срок и между сроками (в фигурных скобках) и направление, откуда дует ветер: С - северный,
  • СВ - северо-восточный, В - восточный, ЮВ - юго-восточный, Ю - южный, ЮЗ - юго-западный, З - западный, СЗ - северо-западный.
  • Видимость - горизонтальная дальность видимости в метрах или километрах. При видимости от 1 до 10 км при отсутствии осадков обычно наблюдается дымка, при ухудшении видимости до 1 км и менее - туман. В сухую погоду видимость может ухудшаться дымом, пылью или мглою.
  • Явления - указаны атмосферные явления, наблюдавшиеся в срок или в последний час перед сроком; фигурными скобками обозначены явления, наблюдавшиеся между сроками (за 1-3 часа до срока); квадратными скобками обозначены град или гололедные отложения с указанием их диаметра в мм.
  • Облачность - указаны через наклонную черту общая и нижняя облачность в баллах и высота нижней границы облаков в метрах; квадратными скобками обозначены формы облаков: Ci - перистые, Cs - перисто-слоистые, Cc - перисто-кучевые, Ac - высококучевые, As - высокослоистые, Sc - слоисто-кучевые, Ns - слоисто-дождевые, Cu - кучевые, Cb - кучево-дождевые. Подробнее классификацию облаков см. в Атласе облаков (PDF).
  • T - Температура воздуха - температура, измеренная на высоте 2 м над землей.
  • Td - Температура точки росы - температура, при понижении до которой содержащийся в воздухе водяной пар достигнет насыщения.
  • f - Относительная влажность воздуха - влажноcть воздуха, измеренная на высоте 2 м над землей.
  • Te - Эффективная температура - температура, которую ощущает одетый по сезону человек в тени. Характеристика душности погоды. При расчете учитывается влияние влажности воздуха и скорости ветра на теплоощущения человека.
  • Tes - Эффективная температура на солнце - температура, которую ощущает человек, с поправкой на солнечный нагрев. Характеристика знойности погоды. Зависит от высоты солнца над горизонтом, облачности и скорости ветра. Ночью, в пасмурную погоду, а также при ветре 12 м/с и более поправка равна нулю.
  • P - Атмосферное давление - приведенное к уровню моря атмосферное давление.
  • Po - Атмосферное давление - измеренное на уровне метеостанции атмосферное давление.
  • Tmin - Минимальная температура - минимум температуры воздуха на высоте 2 м над землей.
  • Tmax - Максимальная температура - максимум температуры воздуха на высоте 2 м над землей.
  • R - Количество осадков - Количество выпавших осадков за период времени, мм. При наведении курсора мыши на число - период времени, за который выпало указанное количество осадков.
  • R24 - Количество осадков - Количество выпавших осадков за 24 часа, мм.
  • S - Снежный покров - Высота снежного покрова, см. При наведении курсора мыши на число - состояние снежного покрова и степень покрытия местности в баллах.